Regional Weather Roundup
Issued by NWS

Home | Current Version | Previous Version | Text Only | Print | Product List | Glossary Off
Versions: 1 2 3 4 5 6 7 8 9 10 11 12 13 14 15 16 17 18 19 20 21 22 23 24 25 26 27

000
ASUS45 KBOU 091207
RWRCO

WEATHER ROUNDUP FOR COLORADO
NATIONAL WEATHER SERVICE DENVER/BOULDER CO
500 AM MST FRI DEC 09 2016

NOTE: "FAIR" INDICATES FEW OR NO CLOUDS BELOW 12000 FEET WITH NO
SIGNIFICANT WEATHER AND/OR OBSTRUCTIONS TO VISIBILITY.

COZ001>005-013-030-031-091300-
...NORTHWEST COLORADO...

CITY           SKY/WX    TMP DP  RH WIND       PRES   REMARKS
CRAIG          CLOUDY    25  18  74 CALM      30.18R
HAYDEN         CLOUDY    21  16  79 S7        30.17R WCI  13
MEEKER         CLOUDY    35  20  54 SW7G17    30.20R WCI  29
MOUNT WERNER   NOT AVBL
STEAMBOAT SPGS CLOUDY    16  14  91 CALM      30.18R VSB 1
WALDEN           N/A     27  21  80 SW18      30.08F WCI  13
$$

COZ006>008-011-091300-
...WEST CENTRAL VALLEYS...

CITY           SKY/WX    TMP DP  RH WIND       PRES   REMARKS
GRAND JUNCTION CLOUDY    25  17  72 CALM      30.30S
MONTROSE       CLOUDY    27  18  69 CALM      30.29S
EAGLE          FLURRIES  26  23  88 E10       30.24S WCI  16
RIFLE          CLOUDY    24  15  68 W3        30.29S
DELTA          NOT AVBL
NUCLA          FAIR      30  18  59 SE5       30.31S WCI  25
$$

COZ017>023-064>068-091300-
...SOUTHWEST COLORADO...

CITY           SKY/WX    TMP DP  RH WIND       PRES   REMARKS
DURANGO        CLOUDY    25  14  63 CALM      30.30S
CORTEZ         CLOUDY    25  23  92 CALM      30.30R
PAGOSA SPRINGS FAIR      18  11  75 CALM      30.30S
TELLURIDE      CLOUDY    31  22  70 SE3       30.27F
WOLF CREEK PAS CLOUDY    12  12 100 SW12G17   30.30S FOG     WCI  -2
$$

COZ009-010-012-014-032>034-037-058>063-091300-
...CENTRAL COLORADO...

CITY           SKY/WX    TMP DP  RH WIND       PRES   REMARKS
ASPEN          NOT AVBL
BUENA VISTA    FAIR      33  19  58 NW9G24    30.14S WCI  25
COPPER MTN     LGT SNOW  23  16  74 MISG      30.14F VSB 1
BERTHOUD PASS  HVY SNOW  14   3  62 MISG      30.05R VSB 1/4
COTTONWOOD PAS CLOUDY    32  21  64 W14G36    30.11F WCI  22
GUNNISON       FLURRIES  16  14  92 CALM      30.29S
KREMMLING      LGT SNOW  34  27  75 SW10      30.15S WCI  26
LEADVILLE      LGT SNOW  22  19  89 CALM      30.14F FOG
MONARCH PASS   CLOUDY    18  14  86 W35G41    30.29F WCI  -3
SALIDA         CLOUDY    38  21  51 W16G23    30.22S
SUNLIGHT       LGT SNOW  19  18  93 SW18G33   30.21F WCI   4
WILKERSON PASS FAIR      19  18  93 W12G20    30.12S WCI   7
$$

COZ069>075-091300-
...SAN LUIS VALLEY/SANGRE DE CRISTO MOUNTAINS...

CITY           SKY/WX    TMP DP  RH WIND       PRES   REMARKS
ALAMOSA        FAIR       1  -3  83 S3        30.24S
LA VETA PASS   FAIR      21  16  79 NE29G40   30.12R WCI   3
SAGUACHE       FAIR      10   7  85 CALM      30.23R
$$

COZ035-036-038>040-091300-
...NORTHERN COLORADO FRONT RANGE...

CITY           SKY/WX    TMP DP  RH WIND       PRES   REMARKS
DENVER INTL AP FAIR       6   1  80 CALM      30.06F
DMNS CITY PARK   N/A      8   4  86 NE8       30.07S WCI  -5
AURORA         PTCLDY     3   0  88 CALM      30.05S
FRONT RANGE AP FAIR       7   3  85 SW7       30.06F WCI  -5
ERIE MUNI ARPT FAIR       1  -2  85 CALM      30.09F
BOULDER MUN AP FAIR       7   3  85 CALM      30.07F
CENTENNIAL     FAIR      13   8  81 SE3       30.03F
BROOMFIELD     FAIR       7   3  85 CALM      30.05F
FORT COLLINS   FAIR       7   3  85 CALM      30.09F
LONGMONT       FAIR       4  -1  83 CALM      30.11F
$$

COZ041-046-047-076>085-087-088-091300-
...PIKES PEAK/PALMER DIVIDE AND SOUTHERN FOOTHILLS...

CITY           SKY/WX    TMP DP  RH WIND       PRES   REMARKS
COLO. SPRINGS  FAIR       7   2  80 NE7       30.09F WCI  -5
A. F. ACADEMY  FAIR       3  -1  81 N7        30.06F WCI  -9
SCHRIEVER AFB  NOT AVBL
ELLICOTT       FAIR     N/A N/A N/A N3          N/A
FALCON         FAIR      17  13  82 W5        30.07S WCI  10
FORT CARSON    FAIR       8   2  78 N6        30.09S WCI  -2
LIMON          FAIR       3  -1  83 CALM      30.10F
MONUMENT HILL  FAIR      28  18  64 SW10      30.05F WCI  19
TRINIDAD       FAIR      24  12  60 SW16      30.11S WCI  11
$$

COZ042>045-048>051-090-091-091300-
...NORTHEAST COLORADO...

CITY           SKY/WX    TMP DP  RH WIND       PRES   REMARKS
GREELEY ARPT   FAIR       8   3  80 S5        30.12F WCI   0
AKRON          FAIR       7   0  73 S9        30.11F WCI  -7
BURLINGTON     FAIR       5  -1  76 S9        30.19F WCI  -9
WRAY           FAIR      10   5  79 S7        30.24F WCI   0
STERLING       FAIR      12   5  73 S6        30.15F WCI   3
HOLYOKE        FAIR      14   9  79 S12       30.23S WCI   0
FORT MORGAN    FAIR       8   2  78 SW3       30.11F
$$

COZ086-089-092>099-091300-
...SOUTHEAST COLORADO...

CITY           SKY/WX    TMP DP  RH WIND       PRES   REMARKS
PUEBLO         FAIR       8   1  73 S3        30.18S
LA JUNTA       FAIR       8   2  76 W5        30.21F WCI   0
LAMAR          FAIR       4   1  88 CALM      30.22F
SPRINGFIELD      N/A     17  13  84 S7        30.18F WCI   8
$$




USA.gov is the U.S. government's official web portal to all federal, state and local government web resources and services.